Location: Newark
(50.0306°N, 2.3272°E)
Time: 05:09:09
(UTC+00:00)

Vanguard 1 Rocket - Pass Details

Date: 14 December 2019
Orbit: 651 x 4226 km, 34.3° (Epoch: 28 January)

Event Time Altitude Azimuth Distance (km) Brightness Sun altitude
Rises 16:24:29 0° 186° (S) 8,460 12.9 -5.6°
Reaches altitude 10° 16:34:43 10° 169° (SSE) 7,246 12.2 -7.1°
Maximum altitude 16:45:51 16° 141° (SE) 6,192 11.5 -8.7°
Drops below altitude 10° 16:55:04 10° 112° (ESE) 5,922 11.1 -10.0°
Enters shadow 16:59:58 - 97° (E) 6,131 11.1 -10.7°
Sets 17:01:34 0° 92° (E) 6,257 - -11.0°
